Fairbanks Ft. Wainwright, AK

8:07 PM AKDT on April 26, 2017 (GMT -0800)
Ladd Army Air Field

Weather History for PAFB - May, 2014

Change the Weather History Date:

Saturday, May 17, 2014

  Actual Average Record
Temperature  
Mean Temperature 52 °F -  
Max Temperature 64 °F 57 °F 79 °F (2015)
Min Temperature 39 °F 38 °F 26 °F (2013)
Degree Days  
Heating Degree Days 14    
Growing Degree Days 2 (Base 50)    
Moisture  
Dew Point 37 °F    
Average Humidity 58    
Maximum Humidity 77    
Minimum Humidity 37    
Precipitation  
Precipitation 0.01 in - - ()
Sea Level Pressure  
Sea Level Pressure 29.98 in    
Wind  
Wind Speed - (North)    
Max Wind Speed -    
Max Gust Speed -    
Visibility 10 miles    
Events      
Averages and records for this station are not official NWS values.
T = Trace of Precipitation, MM = Missing Value Source: NWS Daily Summary

Daily Weather History Graph

Daily Weather History Graph

Search for Another Location

Airport or City:

Trip Planner

Search our weather history database for the weather conditions in past years. The results will help you decide how hot, cold, wet, or windy it might be!

Date:

Astronomy

May. 17, 2014 Rise Set
Actual Time 4:20 AM AKDT 11:16 PM AKDT
Civil Twilight 2:19 AM AKDT 1:14 AM AKDT
Nautical Twilight Sun does not set Sun does not set
Astronomical Twilight Sun does not set Sun does not set
Moon 1:21 AM AKDT (5/17) 7:22 AM AKDT (5/17)
Length of Visible Light 22h 55m
Length of Day
18h 56m
Waning Gibbous, 88% of the Moon is Illuminated
May 17
Waning Gibbous
May 21
Last Quarter
May 28
New
Jun 5
First Quarter
Jun 12
Full

Hourly Weather History & Observations

Time (AKDT) Temp. Dew Point Humidity Pressure Visibility Wind Dir Wind Speed Gust Speed Precip Events Conditions
12:56 AM 46.0 °F 35.1 °F 66% 30.11 in 10.0 mi North - - N/A   Clear
1:56 AM 46.0 °F 35.1 °F 66% 30.11 in 10.0 mi North - - N/A   Clear
2:56 AM 41.0 °F 34.0 °F 76% 30.11 in 10.0 mi North - - N/A   Clear
3:56 AM 42.1 °F 34.0 °F 73% 30.10 in 10.0 mi North - - N/A   Partly Cloudy
4:56 AM 41.0 °F 33.1 °F 73% 30.09 in 10.0 mi North - - N/A   Clear
5:56 AM 39.9 °F 33.1 °F 77% 30.09 in 10.0 mi North - - N/A   Scattered Clouds
6:56 AM 43.0 °F 34.0 °F 71% 30.08 in 10.0 mi North - - N/A   Overcast
7:56 AM 44.1 °F 35.1 °F 71% 30.06 in 10.0 mi North - - N/A   Overcast
8:56 AM 46.9 °F 36.0 °F 66% 30.05 in 10.0 mi North - - N/A   Overcast
9:56 AM 50.0 °F 37.0 °F 61% 30.04 in 10.0 mi North - - N/A   Mostly Cloudy
10:56 AM 55.0 °F 37.9 °F 53% 30.02 in 10.0 mi North - - N/A   Mostly Cloudy
11:56 AM 59.0 °F 37.9 °F 46% 29.99 in 10.0 mi North - - N/A   Overcast
12:56 PM 63.0 °F 37.9 °F 40% 29.96 in 10.0 mi North - - N/A   Mostly Cloudy
1:56 PM 64.0 °F 39.0 °F 40% 29.92 in 10.0 mi North - - N/A   Partly Cloudy
2:56 PM 64.9 °F 37.9 °F 37% 29.89 in 10.0 mi North - - N/A   Scattered Clouds
3:56 PM 64.9 °F 37.9 °F 37% 29.86 in 10.0 mi North - - N/A   Mostly Cloudy
4:56 PM 62.1 °F 46.9 °F 58% 29.85 in 10.0 mi North - - 0.00 in   Mostly Cloudy
5:56 PM 60.1 °F 42.1 °F 51% 29.84 in 10.0 mi North - - 0.00 in   Overcast
6:56 PM 61.0 °F 39.0 °F 44% 29.84 in 10.0 mi North - - N/A   Overcast
7:56 PM 57.0 °F 45.0 °F 64% 29.85 in 10.0 mi North - - 0.01 in   Mostly Cloudy
8:56 PM 53.1 °F 37.9 °F 57% 29.88 in 10.0 mi North - - N/A   Scattered Clouds
9:56 PM 50.0 °F 34.0 °F 54% 29.90 in 10.0 mi North - - N/A   Overcast
10:56 PM 48.0 °F 34.0 °F 58% 29.90 in 10.0 mi North - - N/A   Mostly Cloudy
11:56 PM 45.0 °F 30.9 °F 58% 29.92 in 10.0 mi North - - N/A   Clear